View from above orbital plane
|
View from above satellite
|
Ground track
|
The orbit data is extracted from the following two-line orbital elements,
1 23404U 94077A 21063.73526184 -.00000265 00000-0 -11514-3 0 9998
2 23404 71.0155 333.1931 0018163 250.9178 108.9977 14.13535058355726
Epoch (UTC): | 04 March 2021 17:38:46 |
Eccentricity: | 0.0018163 |
inclination: | 71.0155° |
perigee height: | 834 km |
apogee height: | 860 km |
right ascension of ascending node: | 333.1931° |
argument of perigee: | 250.9178° |
revolutions per day: | 14.13535058 |
mean anomaly at epoch: | 108.9977° |
orbit number at epoch: | 35572 |
The dashed part of the orbit path shows where the satellite is in the earth's shadow,
|
|